Algona, IA

4:28 PM CST on December 06, 2016 (GMT -0600)
Algona Municipal

Weather History for KAXA - April, 2014

Change the Weather History Date:

Thursday, April 10, 2014

  Actual Average Record
Temperature  
Mean Temperature 52 °F -  
Max Temperature 62 °F 51 °F 80 °F (2006)
Min Temperature 41 °F 34 °F 23 °F (2004)
Degree Days  
Heating Degree Days 14    
Growing Degree Days 2 (Base 50)    
Moisture  
Dew Point 31 °F    
Average Humidity 48    
Maximum Humidity 81    
Minimum Humidity 23    
Precipitation  
Precipitation 0.00 in - - ()
Sea Level Pressure  
Sea Level Pressure 29.85 in    
Wind  
Wind Speed 13 mph (NNW)    
Max Wind Speed 23 mph    
Max Gust Speed 32 mph    
Visibility 10 miles    
Events      
Averages and records for this station are not official NWS values.
T = Trace of Precipitation, MM = Missing Value Source: NWS Daily Summary

Daily Weather History Graph

Daily Weather History Graph

Search for Another Location

Airport or City:

Trip Planner

Search our weather history database for the weather conditions in past years. The results will help you decide how hot, cold, wet, or windy it might be!

Date:

Astronomy

Apr. 10, 2014 Rise Set
Actual Time 6:43 AM CDT 7:53 PM CDT
Civil Twilight 6:14 AM CDT 8:23 PM CDT
Nautical Twilight 5:39 AM CDT 8:58 PM CDT
Astronomical Twilight 5:02 AM CDT 9:35 PM CDT
Moon 3:32 PM CDT (4/10) 4:13 AM CDT (4/10)
Length of Visible Light 14h 08m
Length of Day
13h 10m
Waxing Gibbous, 80% of the Moon is Illuminated
Apr 10
Waxing Gibbous
Apr 15
Full
Apr 22
Last Quarter
Apr 29
New
May 6
First Quarter

Hourly Weather History & Observations

Time (CDT) Temp. Windchill Dew Point Humidity Pressure Visibility Wind Dir Wind Speed Gust Speed Precip Events Conditions
12:15 AM 53.6 °F - 37.4 °F 54% 29.58 in 10.0 mi South 16.1 mph - N/A   Clear
12:35 AM 51.8 °F - 37.4 °F 58% 29.58 in 10.0 mi South 15.0 mph - N/A   Clear
12:55 AM 51.8 °F - 37.4 °F 58% 29.57 in 10.0 mi South 15.0 mph - N/A   Partly Cloudy
1:15 AM 50.0 °F - 37.4 °F 62% 29.63 in 10.0 mi WNW 13.8 mph 26.5 mph N/A   Clear
1:35 AM 55.4 °F - 37.4 °F 51% 29.65 in 10.0 mi West 12.7 mph - N/A   Clear
1:55 AM 57.2 °F - 37.4 °F 48% 29.66 in 10.0 mi NNW 12.7 mph - N/A   Clear
2:15 AM 55.4 °F - 41.0 °F 58% 29.68 in 10.0 mi NNW 10.4 mph 17.3 mph N/A   Clear
2:35 AM 53.6 °F - 41.0 °F 62% 29.68 in 10.0 mi North 15.0 mph - N/A   Partly Cloudy
2:55 AM 51.8 °F - 41.0 °F 67% 29.69 in 10.0 mi NNW 13.8 mph - N/A   Clear
3:15 AM 50.0 °F - 41.0 °F 71% 29.69 in 10.0 mi North 15.0 mph 20.7 mph N/A   Clear
3:35 AM 48.2 °F - 41.0 °F 76% 29.69 in 10.0 mi North 12.7 mph 21.9 mph N/A   Clear
3:55 AM 48.2 °F - 39.2 °F 71% 29.69 in 10.0 mi North 16.1 mph - N/A   Clear
4:15 AM 46.4 °F 39.8 °F 39.2 °F 76% 29.70 in 10.0 mi North 16.1 mph - N/A   Clear
4:35 AM 46.4 °F 40.7 °F 39.2 °F 76% 29.72 in 10.0 mi North 12.7 mph - N/A   Clear
4:55 AM 44.6 °F 38.1 °F 37.4 °F 76% 29.74 in 10.0 mi NNW 13.8 mph - N/A   Clear
5:15 AM 44.6 °F 39.2 °F 37.4 °F 76% 29.74 in 10.0 mi NNW 10.4 mph - N/A   Clear
5:35 AM 42.8 °F 38.0 °F 35.6 °F 76% 29.74 in 10.0 mi North 8.1 mph - N/A   Clear
5:55 AM 41.0 °F 36.4 °F 35.6 °F 81% 29.74 in 10.0 mi North 6.9 mph - N/A   Clear
6:15 AM 41.0 °F 36.4 °F 35.6 °F 81% 29.75 in 10.0 mi NNW 6.9 mph - N/A   Clear
6:35 AM 42.8 °F 38.6 °F 35.6 °F 76% 29.75 in 10.0 mi North 6.9 mph - N/A   Clear
6:55 AM 42.8 °F 38.0 °F 35.6 °F 76% 29.77 in 10.0 mi North 8.1 mph - N/A   Scattered Clouds
7:15 AM 42.8 °F 37.5 °F 37.4 °F 81% 29.79 in 10.0 mi NNW 9.2 mph - N/A   Mostly Cloudy
7:35 AM 44.6 °F 38.8 °F 37.4 °F 76% 29.82 in 10.0 mi NNW 11.5 mph - N/A   Mostly Cloudy
7:55 AM 44.6 °F 40.2 °F 37.4 °F 76% 29.83 in 10.0 mi NW 8.1 mph - N/A   Scattered Clouds
8:15 AM 44.6 °F 40.2 °F 37.4 °F 76% 29.83 in 10.0 mi NNW 8.1 mph 15.0 mph N/A   Partly Cloudy
8:35 AM 46.4 °F 41.9 °F 37.4 °F 71% 29.84 in 10.0 mi NW 9.2 mph - N/A   Partly Cloudy
8:55 AM 46.4 °F 41.9 °F 39.2 °F 76% 29.86 in 10.0 mi NW 9.2 mph - N/A   Clear
9:15 AM 48.2 °F - 37.4 °F 66% 29.87 in 10.0 mi NNW 11.5 mph - N/A   Clear
9:35 AM 50.0 °F - 35.6 °F 58% 29.87 in 10.0 mi NNW 12.7 mph 18.4 mph N/A   Clear
9:55 AM 51.8 °F - 32.0 °F 47% 29.86 in 10.0 mi North 16.1 mph - N/A   Clear
10:15 AM 53.6 °F - 30.2 °F 41% 29.87 in 10.0 mi NNW 16.1 mph - N/A   Clear
10:35 AM 53.6 °F - 28.4 °F 38% 29.87 in 10.0 mi NNW 16.1 mph - N/A   Clear
10:55 AM 53.6 °F - 24.8 °F 33% 29.89 in 10.0 mi NNW 16.1 mph 21.9 mph N/A   Clear
11:15 AM 55.4 °F - 26.6 °F 33% 29.89 in 10.0 mi NNW 15.0 mph - N/A   Clear
11:35 AM 55.4 °F - 24.8 °F 31% 29.90 in 10.0 mi NNW 16.1 mph 25.3 mph N/A   Clear
11:55 AM 55.4 °F - 23.0 °F 29% 29.90 in 10.0 mi NNW 17.3 mph - N/A   Clear
12:15 PM 57.2 °F - 23.0 °F 27% 29.90 in 10.0 mi NNW 17.3 mph 27.6 mph N/A   Clear
12:35 PM 57.2 °F - 24.8 °F 29% 29.90 in 10.0 mi NNW 18.4 mph 24.2 mph N/A   Clear
12:55 PM 59.0 °F - 24.8 °F 27% 29.90 in 10.0 mi NNW 15.0 mph 21.9 mph N/A   Clear
1:15 PM 59.0 °F - 24.8 °F 27% 29.90 in 10.0 mi NNW 18.4 mph 25.3 mph N/A   Clear
1:35 PM 60.8 °F - 26.6 °F 27% 29.90 in 10.0 mi NNW 21.9 mph 28.8 mph N/A   Clear
1:55 PM 60.8 °F - 23.0 °F 23% 29.90 in 10.0 mi NNW 23.0 mph 32.2 mph N/A   Clear
2:15 PM 60.8 °F - 23.0 °F 23% 29.90 in 10.0 mi NNW 19.6 mph 32.2 mph N/A   Clear
2:35 PM 60.8 °F - 23.0 °F 23% 29.90 in 10.0 mi NNW 18.4 mph 29.9 mph N/A   Clear
2:55 PM 60.8 °F - 24.8 °F 25% 29.90 in 10.0 mi NW 15.0 mph 27.6 mph N/A   Clear
3:15 PM 60.8 °F - 23.0 °F 23% 29.90 in 10.0 mi NW 20.7 mph 29.9 mph N/A   Clear
3:35 PM 62.6 °F - 24.8 °F 24% 29.90 in 10.0 mi NW 20.7 mph 27.6 mph N/A   Clear
3:55 PM 62.6 °F - 24.8 °F 24% 29.90 in 10.0 mi NNW 15.0 mph 27.6 mph N/A   Clear
4:15 PM 62.6 °F - 24.8 °F 24% 29.90 in 10.0 mi NW 13.8 mph 25.3 mph N/A   Clear
4:35 PM 62.6 °F - 24.8 °F 24% 29.90 in 10.0 mi NNW 15.0 mph 27.6 mph N/A   Clear
4:55 PM 62.6 °F - 24.8 °F 24% 29.90 in 10.0 mi NNW 11.5 mph 25.3 mph N/A   Clear
5:15 PM 62.6 °F - 24.8 °F 24% 29.90 in 10.0 mi NNW 18.4 mph 25.3 mph N/A   Clear
5:35 PM 62.6 °F - 24.8 °F 24% 29.91 in 10.0 mi NNW 16.1 mph 24.2 mph N/A   Clear
5:55 PM 62.6 °F - 24.8 °F 24% 29.91 in 10.0 mi NNW 16.1 mph 24.2 mph N/A   Clear
6:15 PM 60.8 °F - 24.8 °F 25% 29.91 in 10.0 mi NNW 11.5 mph 18.4 mph N/A   Clear
6:35 PM 60.8 °F - 26.6 °F 27% 29.92 in 10.0 mi North 12.7 mph 19.6 mph N/A   Clear
6:55 PM 59.0 °F - 24.8 °F 27% 29.92 in 10.0 mi NNW 11.5 mph - N/A   Clear
7:15 PM 57.2 °F - 28.4 °F 33% 29.93 in 10.0 mi North 9.2 mph - N/A   Clear
7:35 PM 55.4 °F - 30.2 °F 38% 29.93 in 10.0 mi North 6.9 mph - N/A   Clear
7:55 PM 53.6 °F - 30.2 °F 41% 29.94 in 10.0 mi North 5.8 mph - N/A   Clear
8:15 PM 53.6 °F - 28.4 °F 38% 29.94 in 10.0 mi North 3.5 mph - N/A   Clear
8:35 PM 50.0 °F - 30.2 °F 47% 29.96 in 10.0 mi Calm Calm - N/A   Clear
8:55 PM 46.4 °F 45.2 °F 30.2 °F 53% 29.97 in 10.0 mi West 3.5 mph - N/A   Clear
9:15 PM 46.4 °F - 30.2 °F 53% 29.98 in 10.0 mi Calm Calm - N/A   Clear
9:35 PM 46.4 °F 45.2 °F 30.2 °F 53% 29.98 in 10.0 mi West 3.5 mph - N/A   Clear
9:55 PM 46.4 °F - 30.2 °F 53% 29.99 in 10.0 mi Calm Calm - N/A   Clear
10:15 PM 50.0 °F - 28.4 °F 43% 29.99 in 10.0 mi Calm Calm - N/A   Clear
10:35 PM 46.4 °F 43.5 °F 28.4 °F 50% 29.99 in 10.0 mi Variable 5.8 mph - N/A   Clear
10:55 PM 51.8 °F - 28.4 °F 41% 29.99 in 6.0 mi Calm Calm - N/A   Haze
11:15 PM 46.4 °F 45.2 °F 28.4 °F 50% 29.99 in 10.0 mi SSE 3.5 mph - N/A   Clear
11:35 PM 46.4 °F 45.2 °F 28.4 °F 50% 29.98 in 10.0 mi SSE 3.5 mph - N/A   Clear
11:55 PM 44.6 °F 42.2 °F 28.4 °F 53% 29.98 in 10.0 mi South 4.6 mph - N/A   Clear